Kaktovik, AK

1:12 PM AKST on December 06, 2016 (GMT -0900)
Barter Island LRRS

Weather History for PABA - October, 2011

Change the Weather History Date:

Thursday, October 20, 2011

  Actual Average Record
Temperature  
Mean Temperature 26 °F -  
Max Temperature 25 °F 19 °F 30 °F (2004)
Min Temperature 24 °F 9 °F -2 °F (2001)
Degree Days  
Heating Degree Days 39    
Moisture  
Dew Point 25 °F    
Average Humidity 94    
Maximum Humidity 100    
Minimum Humidity 92    
Precipitation  
Precipitation 0.00 in - - ()
Sea Level Pressure  
Sea Level Pressure 29.76 in    
Wind  
Wind Speed 10 mph (SSW)    
Max Wind Speed 22 mph    
Max Gust Speed -    
Visibility 4 miles    
Events Fog , Snow    
Averages and records for this station are not official NWS values.
T = Trace of Precipitation, MM = Missing Value Source: NWS Daily Summary

Daily Weather History Graph

Daily Weather History Graph

Search for Another Location

Airport or City:

Trip Planner

Search our weather history database for the weather conditions in past years. The results will help you decide how hot, cold, wet, or windy it might be!

Date:

Astronomy

Oct. 20, 2011 Rise Set
Actual Time 9:09 AM AKDT 5:26 PM AKDT
Civil Twilight 8:03 AM AKDT 6:32 PM AKDT
Nautical Twilight 6:52 AM AKDT 7:43 PM AKDT
Astronomical Twilight 5:39 AM AKDT 8:55 PM AKDT
Moon 11:52 PM AKDT (10/20) 5:13 PM AKDT (10/20)
Length of Visible Light 10h 28m
Length of Day
8h 17m
Last Quarter, 43% of the Moon is Illuminated
Oct 20
Last Quarter
Oct 26
New
Nov 2
First Quarter
Nov 10
Full
Nov 18
Last Quarter

Hourly Weather History & Observations

Time (AKDT) Temp. Windchill Dew Point Humidity Pressure Visibility Wind Dir Wind Speed Gust Speed Precip Events Conditions
12:01 AM 28.9 °F 21.1 °F 27.0 °F 92% 29.76 in 7.0 mi ESE 8.1 mph - 0.00 in Snow Light Snow
1:01 AM 28.0 °F 18.1 °F 26.1 °F 92% 29.76 in 9.0 mi East 11.5 mph - 0.00 in Snow Light Snow
1:28 AM 28.4 °F 18.5 °F 26.6 °F 93% 29.75 in 7.0 mi ESE 11.5 mph - 0.00 in Snow Light Snow
2:01 AM 28.0 °F 16.5 °F 26.1 °F 92% 29.76 in 6.0 mi ESE 15.0 mph - 0.00 in Snow Light Snow
3:01 AM 27.0 °F 15.2 °F 25.0 °F 92% 29.76 in 6.0 mi East 15.0 mph - 0.00 in Snow Light Snow
3:35 AM 26.6 °F 16.2 °F 26.6 °F 100% 29.76 in 4.0 mi East 11.5 mph - 0.00 in Snow Light Snow
4:01 AM 27.0 °F 16.7 °F 25.0 °F 92% 29.76 in 5.0 mi East 11.5 mph - 0.00 in Snow Light Snow
5:01 AM 27.0 °F 16.1 °F 25.0 °F 92% 29.75 in 6.0 mi East 12.7 mph - 0.00 in Snow Light Snow
5:26 AM 26.6 °F 16.2 °F 24.8 °F 93% 29.75 in 2.5 mi East 11.5 mph - 0.00 in Snow Light Snow
5:35 AM 26.6 °F 17.5 °F 24.8 °F 93% 29.75 in 4.0 mi ESE 9.2 mph - 0.00 in Snow Light Snow
5:59 AM 26.6 °F 16.8 °F 24.8 °F 93% 29.75 in 9.0 mi East 10.4 mph - 0.00 in Snow Light Snow
6:01 AM 26.1 °F 16.2 °F 25.0 °F 96% 29.75 in 9.0 mi East 10.4 mph - 0.00 in Snow Light Snow
7:01 AM 27.0 °F 16.7 °F 25.0 °F 92% 29.74 in 7.0 mi East 11.5 mph - 0.00 in Snow Light Snow
8:01 AM 26.6 °F 19.1 °F 24.8 °F 93% 29.75 in 1.8 mi SSE 6.9 mph - 0.00 in Snow Light Snow
8:08 AM 24.8 °F 16.9 °F 24.8 °F 100% 29.75 in 2.5 mi ESE 6.9 mph - 0.00 in Snow Light Snow
8:45 AM 24.8 °F 16.1 °F 24.8 °F 100% 29.75 in 1.5 mi ESE 8.1 mph - N/A Snow Light Snow
8:53 AM 24.8 °F 16.9 °F 23.0 °F 93% 29.75 in 1.0 mi ESE 6.9 mph - N/A   Overcast
9:19 AM 24.8 °F 16.9 °F 23.0 °F 93% 29.75 in 0.5 mi SE 6.9 mph - N/A Fog Light Freezing Fog
9:39 AM 24.8 °F 17.9 °F 23.0 °F 93% 29.75 in 0.8 mi SSE 5.8 mph - N/A Snow Light Snow
9:46 AM 24.8 °F 16.9 °F 23.0 °F 93% 29.75 in 1.2 mi South 6.9 mph - N/A Snow Light Snow
9:55 AM 24.8 °F 16.9 °F 23.0 °F 93% 29.75 in 0.8 mi SSE 6.9 mph - N/A Snow Light Snow
10:01 AM 24.8 °F 17.9 °F 24.8 °F 100% 29.75 in 0.5 mi South 5.8 mph - N/A Fog , Snow Light Snow
10:14 AM 24.8 °F 16.9 °F 24.8 °F 100% 29.75 in 1.2 mi South 6.9 mph - N/A Snow Light Snow
10:34 AM 24.8 °F 16.9 °F 23.0 °F 93% 29.75 in 1.0 mi SW 6.9 mph - N/A Snow Light Snow
10:52 AM 24.8 °F 16.9 °F 23.0 °F 93% 29.76 in 0.2 mi WSW 6.9 mph - N/A Fog , Snow Light Snow
11:01 AM 24.1 °F 16.0 °F 23.0 °F 96% 29.76 in 0.2 mi SW 6.9 mph - N/A Fog , Snow Light Snow
11:17 AM 24.8 °F 17.9 °F 24.8 °F 100% 29.76 in 0.2 mi WSW 5.8 mph - 0.00 in Fog Light Freezing Fog
11:44 AM 24.8 °F 17.9 °F 24.8 °F 100% 29.76 in 0.5 mi SSW 5.8 mph - N/A Fog , Snow Light Snow
11:56 AM 26.6 °F 20.0 °F 24.8 °F 93% 29.76 in 1.0 mi SSW 5.8 mph - N/A Snow Light Snow
11:59 AM 26.6 °F 19.1 °F 24.8 °F 93% 29.76 in 2.0 mi SSW 6.9 mph - N/A Snow Light Snow
12:01 PM 26.1 °F 19.4 °F 25.0 °F 96% 29.77 in 2.5 mi SSW 5.8 mph - N/A Snow Light Snow
12:08 PM 26.6 °F 20.0 °F 24.8 °F 93% 29.77 in 7.0 mi SSW 5.8 mph - 0.00 in Snow Light Snow
12:44 PM 26.6 °F 22.6 °F 24.8 °F 93% 29.77 in 1.5 mi SSW 3.5 mph - 0.00 in   Overcast
12:55 PM 26.6 °F 22.6 °F 24.8 °F 93% 29.77 in 4.0 mi SW 3.5 mph - 0.00 in   Overcast
1:01 PM 26.1 °F 21.9 °F 25.0 °F 96% 29.77 in 8.0 mi SW 3.5 mph - 0.00 in   Overcast
2:01 PM 26.1 °F - 25.0 °F 96% 29.77 in 6.0 mi Calm Calm - N/A   Mist
2:11 PM 26.6 °F - 24.8 °F 93% 29.77 in 2.0 mi Calm Calm - 0.00 in Snow Light Snow
2:18 PM 26.6 °F - 24.8 °F 93% 29.77 in 1.5 mi Calm Calm - 0.00 in Snow Light Snow
3:01 PM 26.6 °F 13.1 °F 24.8 °F 93% 29.77 in 3.0 mi WNW 19.6 mph - N/A Snow Light Snow
3:25 PM 26.6 °F 14.7 °F 24.8 °F 93% 29.77 in 2.5 mi West 15.0 mph - N/A   Overcast
3:49 PM 26.6 °F 13.8 °F 24.8 °F 93% 29.77 in 2.0 mi West 17.3 mph - N/A   Overcast
4:01 PM 26.1 °F 13.6 °F 25.0 °F 96% 29.77 in 2.5 mi West 16.1 mph - N/A   Overcast
4:35 PM 26.6 °F 13.8 °F 24.8 °F 93% 29.77 in 1.5 mi West 17.3 mph - 0.00 in Snow Light Snow
5:01 PM 26.6 °F 13.8 °F 24.8 °F 93% 29.76 in 2.0 mi West 17.3 mph - 0.00 in Snow Light Snow
5:38 PM 26.6 °F 13.4 °F 24.8 °F 93% 29.77 in 2.0 mi West 18.4 mph - N/A Snow Light Snow
5:45 PM 26.6 °F 13.4 °F 24.8 °F 93% 29.76 in 1.8 mi West 18.4 mph - N/A Snow Light Snow
5:55 PM 26.6 °F 14.7 °F 24.8 °F 93% 29.76 in 2.0 mi West 15.0 mph - N/A Snow Light Snow
6:57 PM 26.6 °F 13.4 °F 24.8 °F 93% 29.76 in 3.0 mi West 18.4 mph - N/A Snow Light Snow
7:01 PM 26.1 °F 12.7 °F 25.0 °F 96% 29.76 in 4.0 mi West 18.4 mph - N/A Snow Light Snow
7:09 PM 26.6 °F 13.4 °F 24.8 °F 93% 29.76 in 4.0 mi WNW 18.4 mph - 0.00 in Snow Light Snow
8:01 PM 26.1 °F 13.6 °F 24.1 °F 92% 29.77 in 6.0 mi West 16.1 mph - 0.00 in Snow Light Snow
9:01 PM 26.1 °F 13.1 °F 24.1 °F 92% 29.77 in 4.0 mi West 17.3 mph - 0.00 in Snow Light Snow
10:01 PM 25.0 °F 11.7 °F 24.1 °F 96% 29.76 in 6.0 mi West 17.3 mph - 0.00 in Snow Light Snow
11:01 PM 25.0 °F 11.3 °F 23.0 °F 92% 29.76 in 7.0 mi West 18.4 mph - 0.00 in Snow Light Snow
11:30 PM 24.8 °F 10.0 °F 23.0 °F 93% 29.76 in 7.0 mi WNW 21.9 mph - 0.00 in Snow Light Snow
11:47 PM 26.6 °F 13.1 °F 24.8 °F 93% 29.76 in 7.0 mi West 19.6 mph - 0.00 in Snow Light Snow